This is the latest recevied weather packets stored in our database for station/object WE3WEE. If no packets are shown the sender has not sent any weather packets the latest 10 day(s).
| Time | Temp. | Humidity | Pressure | Rain* | Wind** | Luminosity | Snow |
|---|---|---|---|---|---|---|---|
| 1777038696 | 15.56° C | 44% | 1011.7 hPa | 0 mm | - | - | - |
| 1777038391 | 15.56° C | 45% | 1011.7 hPa | 0 mm | - | - | - |
| 1777038086 | 15.56° C | 44% | 1011.7 hPa | 0 mm | - | - | - |
| 1777037782 | 15.56° C | 50% | 1011.7 hPa | 0 mm | - | - | - |
| 1777037478 | 15.56° C | 47% | 1011.7 hPa | 0 mm | - | - | - |
| 1777037175 | 15° C | 46% | 1011.7 hPa | 0 mm | - | - | - |
| 1777036872 | 15° C | 46% | 1011.7 hPa | 0 mm | - | - | - |
| 1777036569 | 15° C | 49% | 1011.7 hPa | 0 mm | - | - | - |
| 1777036268 | 15° C | 46% | 1011.7 hPa | 0 mm | - | - | - |
| 1777035966 | 14.44° C | 48% | 1011.7 hPa | 0 mm | - | - | - |
| 1777035659 | 14.44° C | 55% | 1011.7 hPa | 0 mm | - | - | - |
| 1777035355 | 14.44° C | 49% | 1011.7 hPa | 0 mm | - | - | - |
| 1777035051 | 15° C | 49% | 1011.7 hPa | 0 mm | - | - | - |
| 1777034748 | 14.44° C | 56% | 1011.7 hPa | 0 mm | - | - | - |
| 1777034445 | 14.44° C | 55% | 1011.7 hPa | 0 mm | - | - | - |
| 1777034142 | 14.44° C | 54% | 1011.7 hPa | 0 mm | - | - | - |
| 1777033841 | 13.89° C | 55% | 1011.7 hPa | 0 mm | - | - | - |
| 1777033538 | 12.78° C | 58% | 1011.7 hPa | 0 mm | - | - | - |
| 1777033235 | 11.67° C | 75% | 1011.7 hPa | 0 mm | - | - | - |
| 1777032933 | 10.56° C | 75% | 1011.7 hPa | 0 mm | - | - | - |
| 1777032628 | 10.56° C | 81% | 1011.7 hPa | 0 mm | - | - | - |
* Rain latest hour (hover to see other rain measurements)
** Current wind speed in m/s (hover to see current wind gust speed)